Tracking 31027 objects as of 19-Jul-2025
HD Live streaming from Space Station
objects crossing your sky now

SCOUT G-1 DEB

Track SCOUT G-1 DEB now!
10-day predictions


NORAD ID: 19181
Int'l Code: 1988-033G
Perigee: 997.3 km
Apogee: 1,371.5 km
Inclination: 89.8 °
Period: 108.9 minutes
Semi major axis: 7555 km
RCS: 0.0549 m2 (small)
Launch date: April 26, 1988
Source: United States (US)
Launch site: AIR FORCE WESTERN TEST RANGE (AFWTR)

Note: This is SATELLITE DEBRIS
Your satellite tracking list
SL-14 DEB
Track 1 satellite(s)




NASA's NSSDC Master Catalog

Two Line Element Set (TLE):
1 19181U 88033G   25198.70645936  .00000085  00000-0  16042-3 0  9996
2 19181  89.8417 282.9886 0247616 311.9620 202.4921 13.21950139793104
Source of the keplerian elements: AFSPC